Regional Weather Roundup
Issued by NWS

Home | Current Version | Previous Version | Graphics & Text | Print | Product List | Glossary On
Versions: 1 2 3 4 5 6 7 8 9 10 11 12 13 14 15 16 17 18 19 20 21 22 23 24 25 26 27 28 29 30 31 32 33 34 35 36 37 38 39 40 41 42 43 44 45 46 47 48 49 50
000
ASUS45 KSLC 070210
RWRUT

UTAH REGIONAL WEATHER ROUNDUP
NATIONAL WEATHER SERVICE SALT LAKE CITY UT
800 PM MDT MON JUL 06 2015

UTZ001>011-023>025-070300-

NORTHERN UTAH

CITY           SKY/WX    TMP DP  RH WIND       PRES   REMARKS
BRIGHAM CITY   MOSUNNY   81  49  32 NW5       30.06R
HILL AFB       MOCLDY    82  51  33 N7        30.08S
LOGAN          CLEAR     75  54  47 NW3       30.07S
OGDEN          PTCLDY    82  49  31 NW5       30.05S
PROVO AIRPORT  MOCLDY    75  50  41 S5        30.09F
SALT LAKE CITY MOCLDY    80  60  50 S9        30.04S
VERNAL         LGT RAIN  66  53  63 NW17G29   30.16R
WENDOVER       PTSUNNY   82  46  28 E8        30.05S
HEBER CITY     CLOUDY    73  48  40 SW7       30.14S
WEST JORDAN    CLEAR     79  54  41 S7        30.08F

$$

UTZ012>022-026-027-070300-

SOUTHERN/CENTRAL UTAH

CITY           SKY/WX    TMP DP  RH WIND       PRES   REMARKS
BLANDING       PTCLDY    74  50  43 NW5       30.21R
BRYCE CANYON   CLOUDY    53  50  89 NE14      30.32F
CEDAR CITY     CLOUDY    66  57  72 NE6       30.19S
DELTA          CLOUDY    76  46  34 MISG      30.10F
HANKSVILLE     CLOUDY    79  45  29 W6        30.11S
MILFORD        CLOUDY    73  47  39 SW16      30.13S
MOAB/CYNLANDS  LGT RAIN  73  55  53 VRB7      30.06S
PRICE          MOCLDY    72  48  42 W5        30.18R
ST GEORGE      CLOUDY    88  52  29 E7        30.01R
KANAB          MOCLDY    72  59  64 E7        30.22R

$$

REGIONAL REPORTS     COLORADO/ARIZONA

CITY           SKY/WX    TMP DP  RH WIND       PRES   REMARKS
CRAIG, CO      CLOUDY    73  53  49 W9        30.15R
GRAND JUNCTION CLOUDY    77  45  32 SW13      30.06R
RIFLE          MOCLDY    77  58  51 CALM      30.10R
MONTROSE       MOCLDY    78  49  35 N5        30.14R
CORTEZ         CLEAR     76  51  41 N6        30.14S
PAGE, AZ       CLOUDY    75  54  47 W7        30.11R
GRAND CANYON   MOCLDY    69  48  47 NW3       30.27R
KINGMAN        PTCLDY    82  57  42 CALM      30.02F
FLAGSTAFF      PTCLDY    70  49  47 VRB5      30.28R

$$

REGIONAL REPORTS    NEVADA/IDAHO/WYOMING

CITY           SKY/WX    TMP DP  RH WIND       PRES   REMARKS
LAS VEGAS, NV  TSTM      85  55  35 NW23G43   29.90R
ELY            CLOUDY    72  43  35 CALM      30.22S
ELKO           CLOUDY    79  51  37 E12G22    30.09R
POCATELLO, ID  MOSUNNY   80  48  32 E3        30.07S
BURLEY         SUNNY     81  53  37 S6        30.02F
EVANSTON, WY   MOCLDY    64  52  64 E15       30.25S
ROCK SPRINGS   RAIN      55  52  89 E8        30.29S FOG
KEMMERER       MOCLDY    59  52  77 E7        30.28R

$$


USA.gov is the U.S. government's official web portal to all federal, state and local government web resources and services.